Houston / Dunn Helistop, TX

6:44 PM CDT on March 25, 2017 (GMT -0500)
Houston / Dunn Helistop

Weather History for KMCJ - August, 2014

Change the Weather History Date:

Wednesday, August 13, 2014

  Actual Average (KHOU) Record (KHOU)
Temperature  
Mean Temperature 86 °F -  
Max Temperature 96 °F 91 °F 104 °F (1962)
Min Temperature 77 °F 73 °F 64 °F (2004)
Cooling Degree Days 22    
Growing Degree Days 36 (Base 50)    
Moisture  
Dew Point 67 °F    
Average Humidity 54    
Maximum Humidity 74    
Minimum Humidity 32    
Precipitation  
Precipitation 0.00 in - - ()
Sea Level Pressure  
Sea Level Pressure 29.96 in    
Wind  
Wind Speed 3 mph (NNE)    
Max Wind Speed 12 mph    
Max Gust Speed 17 mph    
Visibility 10 miles    
Events      
Averages and records for this station are not official NWS values.
T = Trace of Precipitation, MM = Missing Value Source: NWS Daily Summary

Daily Weather History Graph

Daily Weather History Graph

Search for Another Location

Airport or City:

Trip Planner

Search our weather history database for the weather conditions in past years. The results will help you decide how hot, cold, wet, or windy it might be!

Date:

Astronomy

Aug. 13, 2014 Rise Set
Actual Time 6:48 AM CDT 8:04 PM CDT
Civil Twilight 6:23 AM CDT 8:29 PM CDT
Nautical Twilight 5:53 AM CDT 8:59 PM CDT
Astronomical Twilight 5:22 AM CDT 9:30 PM CDT
Moon 10:11 PM CDT (8/13) 9:58 AM CDT (8/13)
Length of Visible Light 14h 06m
Length of Day
13h 15m
Waning Gibbous, 87% of the Moon is Illuminated
Aug 13
Waning Gibbous
Aug 17
Last Quarter
Aug 25
New
Sep 2
First Quarter
Sep 8
Full

Hourly Weather History & Observations

Time (CDT) Temp. Heat Index Dew Point Humidity Pressure Visibility Wind Dir Wind Speed Gust Speed Precip Events Conditions
12:15 AM 84.2 °F 89.6 °F 71.6 °F 66% 29.96 in 10.0 mi Calm Calm - N/A   Partly Cloudy
12:35 AM 84.2 °F 89.6 °F 71.6 °F 66% 29.96 in 10.0 mi Calm Calm - N/A   Mostly Cloudy
12:55 AM 84.2 °F 89.6 °F 71.6 °F 66% 29.96 in 10.0 mi Calm Calm - N/A   Mostly Cloudy
1:15 AM 84.2 °F 89.6 °F 71.6 °F 66% 29.96 in 10.0 mi Calm Calm - N/A   Partly Cloudy
1:35 AM 84.2 °F 90.9 °F 73.4 °F 70% 29.96 in 10.0 mi Calm Calm - N/A   Clear
1:55 AM 84.2 °F 90.9 °F 73.4 °F 70% 29.95 in 10.0 mi Calm Calm - N/A   Scattered Clouds
2:15 AM 84.2 °F 90.9 °F 73.4 °F 70% 29.95 in 10.0 mi Calm Calm - N/A   Mostly Cloudy
2:35 AM 84.2 °F 90.9 °F 73.4 °F 70% 29.95 in 10.0 mi Calm Calm - N/A   Mostly Cloudy
2:55 AM 84.2 °F 89.6 °F 71.6 °F 66% 29.95 in 10.0 mi Calm Calm - N/A   Mostly Cloudy
3:15 AM 84.2 °F 89.6 °F 71.6 °F 66% 29.95 in 10.0 mi Calm Calm - N/A   Mostly Cloudy
3:35 AM 82.4 °F 84.6 °F 66.2 °F 58% 29.95 in 10.0 mi NNE 9.2 mph - N/A   Scattered Clouds
3:55 AM 82.4 °F 83.9 °F 64.4 °F 54% 29.95 in 10.0 mi NNE 5.8 mph - N/A   Clear
4:15 AM 82.4 °F 84.6 °F 66.2 °F 58% 29.95 in 10.0 mi Calm Calm - N/A   Partly Cloudy
4:35 AM 80.6 °F 82.7 °F 66.2 °F 61% 29.96 in 10.0 mi Calm Calm - N/A   Partly Cloudy
4:55 AM 80.6 °F 82.7 °F 66.2 °F 61% 29.96 in 10.0 mi Calm Calm - N/A   Clear
5:15 AM 80.6 °F 82.3 °F 64.4 °F 58% 29.96 in 10.0 mi NNE 9.2 mph - N/A   Clear
5:35 AM 78.8 °F - 66.2 °F 65% 29.96 in 10.0 mi NNE 6.9 mph - N/A   Clear
5:55 AM 77.0 °F - 66.2 °F 69% 29.96 in 10.0 mi NNE 9.2 mph - N/A   Scattered Clouds
6:15 AM 77.0 °F - 66.2 °F 69% 29.96 in 10.0 mi NNE 11.5 mph - N/A   Scattered Clouds
6:35 AM 77.0 °F - 66.2 °F 69% 29.97 in 10.0 mi North 8.1 mph - N/A   Scattered Clouds
8:35 AM 77.0 °F - 68.0 °F 74% 30.00 in 10.0 mi NNE 9.2 mph - N/A   Partly Cloudy
9:15 AM 80.6 °F 83.2 °F 68.0 °F 65% 30.00 in 10.0 mi NNE 5.8 mph - N/A   Clear
9:35 AM 82.4 °F 85.4 °F 68.0 °F 62% 30.01 in 10.0 mi Calm Calm - N/A   Clear
10:15 AM 84.2 °F 88.4 °F 69.8 °F 62% 30.01 in 10.0 mi NNE 6.9 mph - N/A   Clear
10:35 AM 84.2 °F 87.3 °F 68.0 °F 58% 30.01 in 10.0 mi NE 6.9 mph - N/A   Clear
10:55 AM 86.0 °F 90.4 °F 69.8 °F 58% 30.01 in 10.0 mi North 6.9 mph - N/A   Clear
11:15 AM 86.0 °F 90.4 °F 69.8 °F 58% 30.01 in 10.0 mi Calm Calm - N/A   Clear
11:35 AM 89.6 °F 94.7 °F 69.8 °F 52% 30.01 in 10.0 mi NNE 8.1 mph - N/A   Clear
11:55 AM 89.6 °F 94.7 °F 69.8 °F 52% 30.01 in 10.0 mi NNE 6.9 mph - N/A   Clear
12:15 PM 91.4 °F 95.4 °F 68.0 °F 46% 30.00 in 10.0 mi Calm Calm - N/A   Clear
12:35 PM 93.2 °F 97.7 °F 68.0 °F 44% 30.00 in 10.0 mi North 6.9 mph - N/A   Partly Cloudy
12:55 PM 91.4 °F 95.4 °F 68.0 °F 46% 29.99 in 10.0 mi North 10.4 mph - N/A   Scattered Clouds
1:15 PM 93.2 °F 96.2 °F 66.2 °F 41% 29.99 in 10.0 mi NW 10.4 mph - N/A   Scattered Clouds
1:35 PM 93.2 °F 94.9 °F 64.4 °F 38% 29.98 in 10.0 mi Calm Calm - N/A   Scattered Clouds
1:55 PM 93.2 °F 94.9 °F 64.4 °F 38% 29.98 in 10.0 mi Calm Calm - N/A   Clear
2:15 PM 93.2 °F 94.9 °F 64.4 °F 38% 29.98 in 10.0 mi NNE 5.8 mph - N/A   Clear
2:35 PM 95.0 °F 97.0 °F 64.4 °F 36% 29.96 in 10.0 mi NNW 4.6 mph - N/A   Clear
2:55 PM 93.2 °F 94.9 °F 64.4 °F 38% 29.95 in 10.0 mi Calm Calm - N/A   Clear
3:15 PM 93.2 °F 94.9 °F 64.4 °F 38% 29.95 in 10.0 mi North 6.9 mph - N/A   Clear
3:35 PM 95.0 °F 96.0 °F 62.6 °F 34% 29.95 in 10.0 mi North 3.5 mph - N/A   Clear
3:55 PM 96.8 °F 98.0 °F 62.6 °F 32% 29.94 in 10.0 mi NE 8.1 mph - N/A   Clear
4:15 PM 93.2 °F 94.1 °F 62.6 °F 36% 29.93 in 10.0 mi North 6.9 mph - N/A   Partly Cloudy
4:35 PM 95.0 °F 96.0 °F 62.6 °F 34% 29.93 in 10.0 mi North 3.5 mph - N/A   Scattered Clouds
4:55 PM 95.0 °F 96.0 °F 62.6 °F 34% 29.93 in 10.0 mi North 4.6 mph - N/A   Partly Cloudy
5:15 PM 93.2 °F 94.1 °F 62.6 °F 36% 29.92 in 10.0 mi NNE 9.2 mph - N/A   Partly Cloudy
5:35 PM 93.2 °F 94.1 °F 62.6 °F 36% 29.92 in 10.0 mi NNE 5.8 mph - N/A   Partly Cloudy
5:55 PM 91.4 °F 93.2 °F 64.4 °F 41% 29.92 in 10.0 mi NNE 6.9 mph 17.3 mph N/A   Clear
6:15 PM 91.4 °F 93.2 °F 64.4 °F 41% 29.92 in 10.0 mi North 6.9 mph - N/A   Scattered Clouds
6:35 PM 89.6 °F 91.1 °F 64.4 °F 43% 29.92 in 10.0 mi North 11.5 mph - N/A   Partly Cloudy
6:55 PM 89.6 °F 91.1 °F 64.4 °F 43% 29.92 in 10.0 mi Calm Calm - N/A   Clear
7:55 PM 86.0 °F 91.8 °F 71.6 °F 62% 29.92 in 10.0 mi East 11.5 mph - N/A   Clear
11:15 PM 82.4 °F 87.2 °F 71.6 °F 70% 29.98 in 10.0 mi Calm Calm - N/A   Scattered Clouds
11:35 PM 82.4 °F 87.2 °F 71.6 °F 70% 29.98 in 10.0 mi East 5.8 mph - N/A   Mostly Cloudy
11:55 PM 82.4 °F 87.2 °F 71.6 °F 70% 29.98 in 10.0 mi Calm Calm - N/A   Mostly Cloudy